KAC108 HECA-OKKK

Flight info

Callsign KAC108
Flight time 2h 7m
Altitude 37000
Route DCT CVO L677 MENLI N697 SISIK DCT VUTAR DCT TAKSU DCT KARIK B411 ULINA DCT ELETA DCT TAMIM DCT PETRA DCT DEESA DCT BOSAL DCT LABAD DCT NIMAR DCT ULAKO DCT NORGI DCT TOLDI DCT ORSAL DCT RASMO DCT VATIM V45 HFR A788 KFR DCT
Aircraft A320/M-SDE3FGHIRWY/LB1

Departure

Time 2026-05-07 23:01
Airport Cairo International Airport (HECA)

Arrival

Time 2026-05-08 01:08
Airport Kuwait International Airport (OKKK)
Time Latitude Longitude Altitude Speed Heading
2026-05-07 22:37 30.11100 31.40166 374 ft 0 kts 17°
2026-05-07 22:49 30.11087 31.40162 374 ft 4 kts 17°
2026-05-07 22:50 30.11061 31.40153 374 ft 4 kts 17°
2026-05-07 22:50 30.11041 31.40145 374 ft 4 kts 17°
2026-05-07 22:50 30.11019 31.40138 374 ft 4 kts 50°
2026-05-07 22:50 30.11017 31.40115 374 ft 4 kts 107°
2026-05-07 22:51 30.11024 31.40086 374 ft 4 kts 107°
2026-05-07 22:51 30.11026 31.40080 374 ft 0 kts 107°
2026-05-07 22:54 30.11021 31.40099 374 ft 8 kts 107°
2026-05-07 22:54 30.11003 31.40164 374 ft 8 kts 107°
2026-05-07 22:54 30.10988 31.40221 374 ft 7 kts 107°
2026-05-07 22:55 30.10975 31.40267 374 ft 6 kts 107°
2026-05-07 22:55 30.10957 31.40334 374 ft 9 kts 107°
2026-05-07 22:55 30.10941 31.40397 374 ft 8 kts 107°
2026-05-07 22:55 30.10920 31.40445 374 ft 6 kts 133°
2026-05-07 22:56 30.10883 31.40458 374 ft 7 kts 186°
2026-05-07 22:56 30.10840 31.40428 374 ft 10 kts 224°
2026-05-07 22:56 30.10785 31.40356 374 ft 12 kts 229°
2026-05-07 22:56 30.10725 31.40306 374 ft 10 kts 176°
2026-05-07 22:57 30.10649 31.40321 374 ft 13 kts 199°
2026-05-07 22:57 30.10578 31.40242 375 ft 19 kts 229°
2026-05-07 22:57 30.10493 31.40128 374 ft 18 kts 229°
2026-05-07 22:57 30.10415 31.40023 374 ft 16 kts 229°
2026-05-07 22:58 30.10345 31.39929 374 ft 15 kts 229°
2026-05-07 22:58 30.10280 31.39845 374 ft 13 kts 229°
2026-05-07 22:58 30.10223 31.39769 374 ft 12 kts 229°
2026-05-07 22:58 30.10173 31.39703 374 ft 10 kts 229°
2026-05-07 22:59 30.10119 31.39659 374 ft 9 kts 194°
2026-05-07 22:59 30.10064 31.39666 374 ft 7 kts 157°
2026-05-07 22:59 30.10027 31.39698 374 ft 6 kts 130°
2026-05-07 22:59 30.10010 31.39738 374 ft 7 kts 109°
2026-05-07 23:00 30.09997 31.39829 373 ft 13 kts 96°
2026-05-07 23:00 30.10022 31.39896 371 ft 5 kts 50°
2026-05-07 23:00 30.10026 31.39901 370 ft 0 kts 49°
2026-05-07 23:00 30.10211 31.40145 374 ft 77 kts 49°
2026-05-07 23:01 30.10703 31.40793 372 ft 134 kts 48°
2026-05-07 23:01 30.11379 31.41695 771 ft 145 kts 50°
2026-05-07 23:01 30.11963 31.42591 1565 ft 136 kts 52°
2026-05-07 23:01 30.12480 31.43483 2210 ft 134 kts 56°
2026-05-07 23:02 30.12808 31.44548 2595 ft 157 kts 90°
2026-05-07 23:02 30.12439 31.45837 2928 ft 182 kts 114°
2026-05-07 23:02 30.11670 31.47112 3240 ft 206 kts 137°
2026-05-07 23:02 30.10467 31.48017 3910 ft 208 kts 146°
2026-05-07 23:03 30.09246 31.49008 4287 ft 213 kts 140°
2026-05-07 23:03 30.08069 31.50024 4549 ft 219 kts 139°
2026-05-07 23:03 30.06848 31.51202 4772 ft 244 kts 135°
2026-05-07 23:03 30.05516 31.52562 5194 ft 267 kts 136°
2026-05-07 23:04 30.04086 31.54020 5933 ft 277 kts 136°
2026-05-07 23:04 30.02619 31.55496 6798 ft 282 kts 137°
2026-05-07 23:04 30.01117 31.56985 7652 ft 287 kts 137°
2026-05-07 23:04 29.99577 31.58492 8460 ft 292 kts 138°
2026-05-07 23:05 29.98010 31.60013 9240 ft 297 kts 138°
2026-05-07 23:05 29.96407 31.61562 10026 ft 302 kts 139°
2026-05-07 23:05 29.94755 31.63159 10473 ft 321 kts 139°
2026-05-07 23:05 29.93007 31.64850 10701 ft 344 kts 139°
2026-05-07 23:06 29.91235 31.66800 11146 ft 357 kts 130°
2026-05-07 23:06 29.89720 31.69099 11790 ft 362 kts 126°
2026-05-07 23:06 29.88214 31.71456 12468 ft 368 kts 126°
2026-05-07 23:06 29.86683 31.73838 13141 ft 372 kts 126°
2026-05-07 23:07 29.85128 31.76250 13800 ft 376 kts 126°
2026-05-07 23:07 29.83559 31.78683 14491 ft 380 kts 126°
2026-05-07 23:07 29.81972 31.81144 15158 ft 384 kts 126°
2026-05-07 23:07 29.80378 31.83626 15807 ft 387 kts 126°
2026-05-07 23:08 29.78905 31.86228 16421 ft 390 kts 116°
2026-05-07 23:08 29.77850 31.89111 17028 ft 392 kts 105°
2026-05-07 23:08 29.77152 31.92156 17634 ft 395 kts 102°
2026-05-07 23:08 29.76477 31.95235 18217 ft 398 kts 102°
2026-05-07 23:09 29.75793 31.98338 18791 ft 402 kts 102°
2026-05-07 23:09 29.75098 32.01472 19334 ft 406 kts 103°
2026-05-07 23:09 29.74393 32.04636 19886 ft 409 kts 103°
2026-05-07 23:09 29.73690 32.07778 20381 ft 413 kts 103°
2026-05-07 23:10 29.72971 32.10992 20876 ft 416 kts 103°
2026-05-07 23:10 29.72245 32.14232 21372 ft 420 kts 103°
2026-05-07 23:10 29.71515 32.17496 21827 ft 423 kts 103°
2026-05-07 23:10 29.70779 32.20791 22289 ft 426 kts 103°
2026-05-07 23:11 29.70035 32.24111 22747 ft 429 kts 103°
2026-05-07 23:11 29.69287 32.27446 23194 ft 432 kts 103°
2026-05-07 23:11 29.68532 32.30808 23630 ft 435 kts 103°
2026-05-07 23:11 29.67773 32.34182 24045 ft 438 kts 103°
2026-05-07 23:12 29.67006 32.37596 24458 ft 441 kts 103°
2026-05-07 23:12 29.66235 32.41015 24868 ft 443 kts 103°
2026-05-07 23:12 29.65456 32.44456 25253 ft 445 kts 103°
2026-05-07 23:12 29.64684 32.47858 25642 ft 448 kts 103°
2026-05-07 23:13 29.63895 32.51333 26032 ft 450 kts 103°
2026-05-07 23:13 29.63103 32.54825 26408 ft 452 kts 102°
2026-05-07 23:13 29.62310 32.58324 26793 ft 453 kts 102°
2026-05-07 23:13 29.61511 32.61834 27163 ft 455 kts 102°
2026-05-07 23:14 29.60710 32.65363 27533 ft 457 kts 102°
2026-05-07 23:14 29.60143 32.68957 27872 ft 456 kts 93°
2026-05-07 23:14 29.60038 32.72590 28217 ft 455 kts 86°
2026-05-07 23:14 29.60086 32.76232 28552 ft 457 kts 86°
2026-05-07 23:15 29.60127 32.79849 28873 ft 458 kts 86°
2026-05-07 23:15 29.60165 32.83521 29180 ft 460 kts 86°
2026-05-07 23:15 29.60200 32.87207 29475 ft 462 kts 86°
2026-05-07 23:15 29.60233 32.90910 29772 ft 463 kts 86°
2026-05-07 23:16 29.60263 32.94620 30057 ft 465 kts 86°
2026-05-07 23:16 29.60295 32.98343 30328 ft 466 kts 86°
2026-05-07 23:16 29.60326 33.02083 30589 ft 468 kts 86°
2026-05-07 23:16 29.60355 33.05827 30841 ft 469 kts 86°
2026-05-07 23:17 29.60388 33.09575 31196 ft 469 kts 86°
2026-05-07 23:17 29.60421 33.13272 31548 ft 468 kts 87°
2026-05-07 23:17 29.60454 33.17016 31881 ft 468 kts 87°
2026-05-07 23:17 29.60480 33.20757 32195 ft 467 kts 87°
2026-05-07 23:18 29.60501 33.24495 32527 ft 467 kts 87°
2026-05-07 23:18 29.60522 33.28230 32856 ft 467 kts 87°
2026-05-07 23:18 29.60543 33.31965 33185 ft 466 kts 88°
2026-05-07 23:18 29.60564 33.35689 33509 ft 466 kts 88°
2026-05-07 23:19 29.60583 33.39403 33828 ft 465 kts 88°
2026-05-07 23:19 29.60602 33.43120 34140 ft 464 kts 88°
2026-05-07 23:19 29.60621 33.46825 34439 ft 464 kts 88°
2026-05-07 23:19 29.60639 33.50538 34711 ft 465 kts 88°
2026-05-07 23:20 29.60656 33.54255 34972 ft 465 kts 88°
2026-05-07 23:20 29.60672 33.57927 35223 ft 465 kts 88°
2026-05-07 23:20 29.60688 33.61649 35457 ft 466 kts 88°
2026-05-07 23:20 29.60702 33.65376 35680 ft 466 kts 88°
2026-05-07 23:21 29.60713 33.69097 35903 ft 466 kts 88°
2026-05-07 23:21 29.60726 33.72829 36113 ft 467 kts 88°
2026-05-07 23:21 29.60733 33.75305 36245 ft 467 kts 88°
2026-05-07 23:21 29.60747 33.80313 36494 ft 469 kts 88°
2026-05-07 23:22 29.60758 33.84064 36690 ft 469 kts 89°
2026-05-07 23:22 29.60763 33.86545 36850 ft 468 kts 89°
2026-05-07 23:22 29.60768 33.90294 37005 ft 467 kts 89°
2026-05-07 23:23 29.60775 33.97736 37035 ft 464 kts 89°
2026-05-07 23:23 29.60783 34.05137 37035 ft 463 kts 89°
2026-05-07 23:24 29.60792 34.12539 37040 ft 463 kts 89°
2026-05-07 23:24 29.60786 34.19896 37033 ft 463 kts 89°
2026-05-07 23:25 29.60776 34.27302 37037 ft 463 kts 89°
2026-05-07 23:25 29.60766 34.34696 37038 ft 463 kts 89°
2026-05-07 23:26 29.60754 34.42102 37044 ft 463 kts 89°
2026-05-07 23:26 29.60731 34.49506 37040 ft 463 kts 89°
2026-05-07 23:27 29.58683 34.60240 37042 ft 462 kts 118°
2026-05-07 23:27 29.56987 34.63359 37042 ft 460 kts 129°
2026-05-07 23:27 29.54863 34.66088 37033 ft 458 kts 139°
2026-05-07 23:28 29.49996 34.70725 37038 ft 457 kts 142°
2026-05-07 23:28 29.45781 34.76206 37039 ft 461 kts 122°
2026-05-07 23:29 29.43365 34.83015 37031 ft 463 kts 102°
2026-05-07 23:29 29.42358 34.90325 37031 ft 464 kts 99°
2026-05-07 23:30 29.41932 34.97649 37037 ft 464 kts 85°
2026-05-07 23:30 29.43231 35.04882 37039 ft 463 kts 74°
2026-05-07 23:31 29.44914 35.12028 37037 ft 464 kts 74°
2026-05-07 23:31 29.46588 35.19210 37037 ft 465 kts 75°
2026-05-07 23:32 29.48265 35.26384 37042 ft 465 kts 75°
2026-05-07 23:32 29.49928 35.33511 37046 ft 465 kts 75°
2026-05-07 23:33 29.51594 35.40708 37047 ft 466 kts 75°
2026-05-07 23:33 29.53256 35.47903 37041 ft 466 kts 75°
2026-05-07 23:34 29.54946 35.55109 37045 ft 467 kts 75°
2026-05-07 23:34 29.56652 35.62262 37045 ft 467 kts 75°
2026-05-07 23:35 29.58365 35.69466 37041 ft 467 kts 75°
2026-05-07 23:35 29.60070 35.76686 37042 ft 468 kts 75°
2026-05-07 23:36 29.61693 35.83875 37043 ft 468 kts 78°
2026-05-07 23:36 29.62928 35.91208 37049 ft 467 kts 81°
2026-05-07 23:37 29.63997 35.98593 37052 ft 468 kts 81°
2026-05-07 23:37 29.65127 36.05958 37055 ft 468 kts 81°
2026-05-07 23:38 29.66338 36.13329 37052 ft 468 kts 80°
2026-05-07 23:38 29.67556 36.20683 37047 ft 468 kts 80°
2026-05-07 23:39 29.68751 36.28049 37046 ft 468 kts 81°
2026-05-07 23:39 29.69919 36.35368 37044 ft 468 kts 81°
2026-05-07 23:40 29.71102 36.42738 37042 ft 468 kts 81°
2026-05-07 23:40 29.72306 36.50100 37030 ft 468 kts 81°
2026-05-07 23:41 29.73501 36.57476 37027 ft 469 kts 81°
2026-05-07 23:41 29.74644 36.64873 37031 ft 469 kts 86°
2026-05-07 23:42 29.74453 36.72308 37031 ft 464 kts 103°
2026-05-07 23:42 29.73052 36.79496 37028 ft 463 kts 106°
2026-05-07 23:43 29.71618 36.86719 37021 ft 463 kts 106°
2026-05-07 23:43 29.70183 36.93945 37016 ft 463 kts 106°
2026-05-07 23:44 29.68734 37.01160 37016 ft 463 kts 107°
2026-05-07 23:44 29.67284 37.08388 37017 ft 463 kts 107°
2026-05-07 23:45 29.65844 37.15564 37018 ft 463 kts 107°
2026-05-07 23:45 29.64381 37.22772 37016 ft 463 kts 107°
2026-05-07 23:46 29.62917 37.29985 37016 ft 463 kts 107°
2026-05-07 23:46 29.61449 37.37188 37011 ft 462 kts 107°
2026-05-07 23:47 29.59976 37.44397 37006 ft 463 kts 107°
2026-05-07 23:47 29.58526 37.51539 37007 ft 462 kts 108°
2026-05-07 23:48 29.57052 37.58753 37006 ft 462 kts 108°
2026-05-07 23:48 29.55564 37.65940 37011 ft 463 kts 108°
2026-05-07 23:49 29.54084 37.73133 37014 ft 463 kts 108°
2026-05-07 23:49 29.52601 37.80331 37017 ft 463 kts 108°
2026-05-07 23:50 29.51108 37.87515 37021 ft 463 kts 108°
2026-05-07 23:50 29.49614 37.94665 37028 ft 463 kts 108°
2026-05-07 23:51 29.48131 38.01863 37042 ft 463 kts 107°
2026-05-07 23:51 29.46835 38.09131 37028 ft 465 kts 106°
2026-05-07 23:52 29.45623 38.16387 37027 ft 465 kts 106°
2026-05-07 23:52 29.44359 38.23661 37029 ft 465 kts 107°
2026-05-07 23:53 29.43049 38.30940 37032 ft 465 kts 107°
2026-05-07 23:53 29.41734 38.38213 37030 ft 466 kts 107°
2026-05-07 23:54 29.40420 38.45506 37032 ft 467 kts 108°
2026-05-07 23:54 29.39103 38.52810 37042 ft 467 kts 108°
2026-05-07 23:55 29.37794 38.60068 37040 ft 468 kts 108°
2026-05-07 23:55 29.36469 38.67388 37043 ft 468 kts 108°
2026-05-07 23:56 29.35132 38.74715 37047 ft 469 kts 109°
2026-05-07 23:56 29.33803 38.81988 37045 ft 470 kts 109°
2026-05-07 23:57 29.32454 38.89331 37046 ft 470 kts 109°
2026-05-07 23:57 29.31025 38.96629 37048 ft 469 kts 110°
2026-05-07 23:58 29.29477 39.03905 37051 ft 469 kts 111°
2026-05-07 23:58 29.27962 39.10929 37055 ft 470 kts 111°
2026-05-07 23:59 29.26445 39.18102 37052 ft 470 kts 111°
2026-05-07 23:59 29.24925 39.25382 37052 ft 471 kts 111°
2026-05-08 00:00 29.23394 39.32651 37054 ft 472 kts 112°
2026-05-08 00:00 29.21845 39.39955 37061 ft 472 kts 112°
2026-05-08 00:01 29.20292 39.47264 37063 ft 473 kts 112°
2026-05-08 00:01 29.18773 39.54399 37066 ft 473 kts 112°
2026-05-08 00:02 29.17214 39.61667 37071 ft 473 kts 112°
2026-05-08 00:02 29.15700 39.68729 37073 ft 473 kts 112°
2026-05-08 00:03 29.14132 39.76065 37075 ft 474 kts 112°
2026-05-08 00:03 29.12561 39.83388 37076 ft 474 kts 112°
2026-05-08 00:04 29.11188 39.90813 37079 ft 484 kts 103°
2026-05-08 00:04 29.11245 39.98611 37077 ft 493 kts 95°
2026-05-08 00:05 29.11533 40.06418 37067 ft 495 kts 95°
2026-05-08 00:05 29.11820 40.14290 37058 ft 496 kts 96°
2026-05-08 00:06 29.12090 40.22178 37056 ft 496 kts 96°
2026-05-08 00:06 29.12352 40.30017 37060 ft 497 kts 96°
2026-05-08 00:07 29.12603 40.37227 37062 ft 497 kts 96°
2026-05-08 00:07 29.12871 40.45125 37068 ft 497 kts 96°
2026-05-08 00:08 29.13119 40.52929 37068 ft 497 kts 96°
2026-05-08 00:08 29.13127 40.60816 37070 ft 490 kts 102°
2026-05-08 00:09 29.12734 40.68597 37071 ft 490 kts 102°
2026-05-08 00:09 29.12335 40.76350 37070 ft 490 kts 102°
2026-05-08 00:10 29.11937 40.84131 37067 ft 490 kts 102°
2026-05-08 00:10 29.11602 40.90607 37067 ft 490 kts 102°
2026-05-08 00:11 29.11186 40.98386 37066 ft 490 kts 102°
2026-05-08 00:11 29.10765 41.06170 37063 ft 490 kts 103°
2026-05-08 00:12 29.10350 41.13960 37058 ft 490 kts 103°
2026-05-08 00:12 29.09932 41.21685 37049 ft 490 kts 103°
2026-05-08 00:13 29.09508 41.29464 37051 ft 490 kts 103°
2026-05-08 00:13 29.09068 41.37232 37052 ft 489 kts 103°
2026-05-08 00:14 29.08630 41.44995 37055 ft 489 kts 103°
2026-05-08 00:14 29.08205 41.52745 37049 ft 488 kts 103°
2026-05-08 00:15 29.07777 41.60439 37044 ft 488 kts 103°
2026-05-08 00:15 29.07328 41.68168 37042 ft 487 kts 104°
2026-05-08 00:16 29.06877 41.75899 37031 ft 487 kts 104°
2026-05-08 00:16 29.06422 41.83628 37029 ft 487 kts 104°
2026-05-08 00:17 29.05967 41.91366 37024 ft 487 kts 104°
2026-05-08 00:17 29.05506 41.99044 37022 ft 487 kts 104°
2026-05-08 00:18 29.05029 42.06822 37009 ft 488 kts 104°
2026-05-08 00:18 29.04553 42.14523 36998 ft 488 kts 104°
2026-05-08 00:19 29.04070 42.22281 36998 ft 489 kts 104°
2026-05-08 00:19 29.03589 42.30045 36999 ft 490 kts 104°
2026-05-08 00:20 29.03100 42.37807 37000 ft 489 kts 104°
2026-05-08 00:20 29.02603 42.45521 37001 ft 490 kts 104°
2026-05-08 00:21 29.02104 42.53301 36999 ft 490 kts 104°
2026-05-08 00:21 29.01604 42.61084 37000 ft 491 kts 104°
2026-05-08 00:22 29.01094 42.68875 37003 ft 491 kts 104°
2026-05-08 00:22 29.00580 42.76623 37000 ft 492 kts 104°
2026-05-08 00:23 29.00063 42.84409 36999 ft 492 kts 105°
2026-05-08 00:23 28.99543 42.92204 36995 ft 492 kts 105°
2026-05-08 00:24 28.99015 43.00009 36992 ft 493 kts 105°
2026-05-08 00:24 28.98481 43.07820 36989 ft 493 kts 105°
2026-05-08 00:25 28.97948 43.15586 36983 ft 493 kts 105°
2026-05-08 00:25 28.97402 43.23408 36984 ft 494 kts 105°
2026-05-08 00:26 28.96850 43.31246 36984 ft 494 kts 105°
2026-05-08 00:26 28.96298 43.39072 36983 ft 495 kts 105°
2026-05-08 00:27 28.95733 43.46907 36984 ft 495 kts 105°
2026-05-08 00:27 28.95171 43.54752 36985 ft 496 kts 105°
2026-05-08 00:28 28.94616 43.62560 36981 ft 496 kts 105°
2026-05-08 00:28 28.94047 43.70406 36983 ft 496 kts 105°
2026-05-08 00:29 28.93463 43.78263 36981 ft 496 kts 105°
2026-05-08 00:29 28.92872 43.86127 36983 ft 497 kts 105°
2026-05-08 00:30 28.92283 43.94006 36984 ft 498 kts 105°
2026-05-08 00:30 28.91695 44.01835 36987 ft 498 kts 105°
2026-05-08 00:31 28.91097 44.09734 36976 ft 500 kts 105°
2026-05-08 00:31 28.90494 44.17635 36973 ft 500 kts 105°
2026-05-08 00:32 28.89880 44.25557 36975 ft 501 kts 105°
2026-05-08 00:32 28.89260 44.33482 36978 ft 501 kts 105°
2026-05-08 00:33 28.88644 44.41374 36977 ft 501 kts 105°
2026-05-08 00:33 28.88022 44.49298 36970 ft 501 kts 105°
2026-05-08 00:34 28.87395 44.57222 36967 ft 502 kts 105°
2026-05-08 00:34 28.86755 44.65159 36968 ft 502 kts 105°
2026-05-08 00:35 28.86004 44.73003 36969 ft 493 kts 112°
2026-05-08 00:35 28.85156 44.76747 36969 ft 481 kts 120°
2026-05-08 00:35 28.83954 44.80263 36965 ft 474 kts 124°
2026-05-08 00:36 28.81434 44.87214 36965 ft 474 kts 124°
2026-05-08 00:36 28.78909 44.94180 36965 ft 475 kts 124°
2026-05-08 00:37 28.76384 45.01143 36962 ft 475 kts 124°
2026-05-08 00:38 28.72604 45.11564 36958 ft 477 kts 124°
2026-05-08 00:38 28.70073 45.18546 36959 ft 477 kts 124°
2026-05-08 00:39 28.67530 45.25529 36950 ft 477 kts 124°
2026-05-08 00:39 28.64983 45.32514 36949 ft 477 kts 124°
2026-05-08 00:40 28.62430 45.39503 36949 ft 478 kts 124°
2026-05-08 00:40 28.59878 45.46460 36951 ft 479 kts 124°
2026-05-08 00:41 28.57309 45.53466 36953 ft 480 kts 123°
2026-05-08 00:41 28.54723 45.60481 36953 ft 480 kts 123°
2026-05-08 00:42 28.52133 45.67484 36953 ft 480 kts 123°
2026-05-08 00:42 28.49540 45.74493 36953 ft 481 kts 123°
2026-05-08 00:43 28.46968 45.81471 36954 ft 482 kts 123°
2026-05-08 00:43 28.44371 45.88504 36955 ft 482 kts 123°
2026-05-08 00:44 28.41764 45.95534 36954 ft 483 kts 123°
2026-05-08 00:44 28.39140 46.02561 36957 ft 483 kts 123°
2026-05-08 00:45 28.36897 46.09786 36956 ft 500 kts 110°
2026-05-08 00:45 28.36471 46.13748 36956 ft 512 kts 99°
2026-05-08 00:45 28.36622 46.17826 36957 ft 522 kts 88°
2026-05-08 00:46 28.37793 46.25996 36953 ft 524 kts 86°
2026-05-08 00:46 28.38966 46.34190 36955 ft 525 kts 86°
2026-05-08 00:47 28.40127 46.42378 36958 ft 525 kts 86°
2026-05-08 00:47 28.41293 46.50572 36960 ft 526 kts 86°
2026-05-08 00:48 28.42459 46.58770 36959 ft 526 kts 86°
2026-05-08 00:48 28.43616 46.66974 36956 ft 526 kts 86°
2026-05-08 00:49 28.44760 46.75138 36955 ft 526 kts 86°
2026-05-08 00:49 28.45903 46.83369 36959 ft 527 kts 86°
2026-05-08 00:50 28.47054 46.91600 36958 ft 527 kts 86°
2026-05-08 00:50 28.48197 46.99827 36955 ft 527 kts 86°
2026-05-08 00:51 28.49328 47.08080 36740 ft 528 kts 86°
2026-05-08 00:51 28.49886 47.12187 35739 ft 536 kts 86°
2026-05-08 00:51 28.50456 47.16394 34838 ft 540 kts 86°
2026-05-08 00:51 28.51033 47.20620 33962 ft 542 kts 86°
2026-05-08 00:52 28.51616 47.24862 33033 ft 544 kts 85°
2026-05-08 00:52 28.52199 47.29131 32144 ft 545 kts 85°
2026-05-08 00:52 28.52777 47.33362 31515 ft 539 kts 85°
2026-05-08 00:52 28.53349 47.37560 30820 ft 533 kts 85°
2026-05-08 00:53 28.53910 47.41710 30177 ft 527 kts 84°
2026-05-08 00:53 28.54461 47.45801 29583 ft 519 kts 84°
2026-05-08 00:53 28.55005 47.49833 28981 ft 512 kts 84°
2026-05-08 00:53 28.55539 47.53804 28342 ft 505 kts 84°
2026-05-08 00:54 28.56058 47.57695 27687 ft 499 kts 84°
2026-05-08 00:54 28.56572 47.61575 27026 ft 493 kts 84°
2026-05-08 00:54 28.57078 47.65412 26381 ft 488 kts 84°
2026-05-08 00:54 28.57610 47.69205 25744 ft 483 kts 83°
2026-05-08 00:55 28.58203 47.72942 25110 ft 478 kts 82°
2026-05-08 00:55 28.58838 47.76651 24473 ft 473 kts 81°
2026-05-08 00:55 28.59483 47.80303 23831 ft 468 kts 81°
2026-05-08 00:55 28.60114 47.83909 23431 ft 457 kts 82°
2026-05-08 00:56 28.60706 47.87387 23240 ft 441 kts 82°
2026-05-08 00:56 28.61267 47.90788 22856 ft 433 kts 82°
2026-05-08 00:56 28.61629 47.94135 22107 ft 419 kts 93°
2026-05-08 00:56 28.61343 47.97322 21211 ft 405 kts 107°
2026-05-08 00:57 28.60459 48.00292 20299 ft 392 kts 117°
2026-05-08 00:57 28.59390 48.03128 19385 ft 387 kts 117°
2026-05-08 00:57 28.58347 48.05925 18530 ft 381 kts 116°
2026-05-08 00:57 28.57412 48.08709 17977 ft 370 kts 107°
2026-05-08 00:58 28.57307 48.11553 17765 ft 355 kts 82°
2026-05-08 00:58 28.58224 48.14113 17265 ft 350 kts 54°
2026-05-08 00:58 28.60016 48.15921 16658 ft 344 kts 26°
2026-05-08 00:58 28.62269 48.16675 16017 ft 336 kts
2026-05-08 00:59 28.64546 48.16488 15354 ft 331 kts 349°
2026-05-08 00:59 28.66811 48.16147 14934 ft 321 kts 349°
2026-05-08 00:59 28.68990 48.15818 14385 ft 317 kts 349°
2026-05-08 00:59 28.71192 48.15482 13553 ft 322 kts 349°
2026-05-08 01:00 28.72673 48.15256 13001 ft 324 kts 349°
2026-05-08 01:00 28.74922 48.14915 12170 ft 326 kts 350°
2026-05-08 01:00 28.77174 48.14573 11314 ft 327 kts 350°
2026-05-08 01:00 28.79443 48.14230 10404 ft 329 kts 350°
2026-05-08 01:01 28.81712 48.13891 9497 ft 328 kts 350°
2026-05-08 01:01 28.83975 48.13550 8592 ft 326 kts 350°
2026-05-08 01:01 28.86210 48.13213 7683 ft 322 kts 350°
2026-05-08 01:01 28.88418 48.12885 6777 ft 318 kts 351°
2026-05-08 01:02 28.90621 48.12560 6016 ft 319 kts 351°
2026-05-08 01:02 28.92810 48.12233 5552 ft 315 kts 351°
2026-05-08 01:02 28.94922 48.11917 5147 ft 297 kts 351°
2026-05-08 01:02 28.96888 48.11527 4775 ft 276 kts 340°
2026-05-08 01:03 28.98535 48.10637 4434 ft 257 kts 330°
2026-05-08 01:03 29.00056 48.09691 4104 ft 242 kts 331°
2026-05-08 01:03 29.01496 48.08796 3811 ft 231 kts 331°
2026-05-08 01:03 29.02905 48.07918 3505 ft 228 kts 332°
2026-05-08 01:04 29.04252 48.07078 3205 ft 213 kts 332°
2026-05-08 01:04 29.05484 48.06270 3028 ft 197 kts 328°
2026-05-08 01:04 29.06624 48.05483 3009 ft 179 kts 332°
2026-05-08 01:04 29.07654 48.04882 2978 ft 156 kts 334°
2026-05-08 01:05 29.08592 48.04369 2851 ft 144 kts 333°
2026-05-08 01:05 29.09490 48.03886 2692 ft 142 kts 330°
2026-05-08 01:05 29.10462 48.03362 2516 ft 171 kts 329°
2026-05-08 01:05 29.11599 48.02757 2273 ft 187 kts 329°
2026-05-08 01:06 29.12823 48.02109 2008 ft 199 kts 331°
2026-05-08 01:06 29.14087 48.01441 1732 ft 197 kts 335°
2026-05-08 01:06 29.15293 48.00803 1483 ft 185 kts 338°
2026-05-08 01:06 29.16402 48.00214 1266 ft 169 kts 337°
2026-05-08 01:07 29.17422 47.99672 1080 ft 154 kts 337°
2026-05-08 01:07 29.18362 47.99169 879 ft 145 kts 337°
2026-05-08 01:07 29.19239 47.98697 715 ft 134 kts 337°
2026-05-08 01:07 29.20077 47.98273 474 ft 126 kts 339°
2026-05-08 01:08 29.20875 47.97844 313 ft 126 kts 335°
2026-05-08 01:08 29.21664 47.97416 192 ft 119 kts 337°
2026-05-08 01:08 29.22259 47.97106 183 ft 63 kts 335°
2026-05-08 01:08 29.22545 47.96958 182 ft 38 kts 336°
2026-05-08 01:09 29.22771 47.96839 182 ft 34 kts 335°
2026-05-08 01:09 29.22975 47.96734 185 ft 30 kts 336°
2026-05-08 01:09 29.23081 47.96707 192 ft 9 kts 54°
2026-05-08 01:09 29.23131 47.96789 182 ft 17 kts 65°
2026-05-08 01:10 29.23222 47.96843 177 ft 17 kts 339°
2026-05-08 01:10 29.23332 47.96781 179 ft 18 kts 334°
2026-05-08 01:10 29.23455 47.96716 176 ft 21 kts 335°
2026-05-08 01:10 29.23599 47.96641 171 ft 24 kts 334°
2026-05-08 01:11 29.23763 47.96553 166 ft 27 kts 334°
2026-05-08 01:11 29.23939 47.96459 166 ft 28 kts 335°
2026-05-08 01:11 29.24119 47.96363 166 ft 28 kts 335°
2026-05-08 01:11 29.24299 47.96270 165 ft 29 kts 336°
2026-05-08 01:12 29.24481 47.96175 165 ft 29 kts 334°
2026-05-08 01:12 29.24663 47.96076 165 ft 29 kts 335°
2026-05-08 01:12 29.24791 47.96008 165 ft 13 kts 336°
2026-05-08 01:12 29.24866 47.95970 165 ft 6 kts 338°
2026-05-08 01:13 29.24895 47.95973 165 ft 0 kts 26°
2026-05-08 01:13 29.24928 47.96007 166 ft 12 kts 48°
2026-05-08 01:13 29.24970 47.96063 167 ft 3 kts 47°
2026-05-08 01:14 29.24978 47.96072 168 ft 0 kts 47°